Weather History for Galena, AK

Change the Weather History Date:

Monday, November 11, 2013

  Actual Average Record
Temperature  
Mean Temperature 19 °F -  
Max Temperature 24 °F 15 °F 38 °F (1965)
Min Temperature 14 °F 3 °F -31 °F (1956)
Degree Days  
Heating Degree Days 46    
Moisture  
Dew Point 14 °F    
Average Humidity 86    
Maximum Humidity 92    
Minimum Humidity 74    
Precipitation  
Precipitation 0.00 in - - ()
Sea Level Pressure  
Sea Level Pressure 30.23 in    
Wind  
Wind Speed 5 mph (WSW)    
Max Wind Speed 10 mph    
Max Gust Speed -    
Visibility 10 miles    
Events Snow    
Averages and records for this station are not official NWS values.
T = Trace of Precipitation, MM = Missing Value Source: NWS Daily Summary

Daily Weather History Graph

Daily Weather History Graph

Search for Another Location

Airport:

Trip Planner

Search our weather history database for the weather conditions in past years. The results will help you decide how hot, cold, wet, or windy it might be!

Date:

Astronomy

Nov. 11, 2013 Rise Set
Actual Time 9:50 AM AKST 4:32 PM AKST
Civil Twilight 8:49 AM AKST 5:32 PM AKST
Nautical Twilight 7:48 AM AKST 6:33 PM AKST
Astronomical Twilight 6:51 AM AKST 7:30 PM AKST
Moon 3:17 PM AKST (11/11) 1:36 AM AKST (11/11)
Length of Visible Light 8h 42m
Length of Day
6h 42m
Waxing Gibbous, 68% of the Moon is Illuminated
Nov 11
Waxing Gibbous
Nov 17
Full
Nov 25
Last Quarter
Dec 2
New
Dec 9
First Quarter

Hourly Weather History & Observations

Time (AKST) Temp. Windchill Dew Point Humidity Pressure Visibility Wind Dir Wind Speed Gust Speed Precip Events Conditions
12:11 AM 24.8 °F 16.1 °F 19.4 °F 80% 29.94 in 10.0 mi West 8.1 mph - N/A   Mostly Cloudy
12:22 AM 23.0 °F 17.0 °F 19.4 °F 86% 29.95 in 10.0 mi WNW 4.6 mph - N/A   Scattered Clouds
12:58 AM 21.9 °F 14.5 °F 19.0 °F 89% 30.00 in 10.0 mi WNW 5.8 mph - N/A   Clear
1:58 AM 21.0 °F 13.4 °F 18.0 °F 88% 30.04 in 10.0 mi WNW 5.8 mph - N/A   Partly Cloudy
2:58 AM 19.0 °F - 16.0 °F 88% 30.07 in 10.0 mi Calm Calm - N/A   Clear
3:58 AM 17.1 °F 8.7 °F 14.0 °F 88% 30.11 in 10.0 mi WSW 5.8 mph - N/A   Clear
4:58 AM 17.1 °F - 12.9 °F 84% 30.14 in 10.0 mi Calm Calm - N/A   Clear
5:58 AM 17.1 °F 8.7 °F 12.9 °F 84% 30.17 in 10.0 mi West 5.8 mph - N/A   Scattered Clouds
6:58 AM 16.0 °F 8.8 °F 12.9 °F 88% 30.20 in 10.0 mi West 4.6 mph - N/A   Scattered Clouds
7:58 AM 15.1 °F - 12.9 °F 91% 30.23 in 9.0 mi Calm Calm - N/A   Clear
8:58 AM 15.1 °F 6.4 °F 12.9 °F 91% 30.25 in 10.0 mi West 5.8 mph - N/A   Scattered Clouds
9:58 AM 14.0 °F 8.2 °F 10.9 °F 88% 30.28 in 10.0 mi SW 3.5 mph - N/A   Clear
10:58 AM 16.0 °F 7.4 °F 14.0 °F 92% 30.29 in 10.0 mi WSW 5.8 mph - N/A   Clear
11:58 AM 18.0 °F 11.1 °F 15.1 °F 88% 30.31 in 10.0 mi WSW 4.6 mph - N/A   Clear
12:58 PM 19.9 °F 12.1 °F 16.0 °F 85% 30.32 in 10.0 mi WSW 5.8 mph - N/A   Clear
1:58 PM 21.0 °F 11.4 °F 16.0 °F 81% 30.33 in 10.0 mi WSW 8.1 mph - N/A   Clear
2:58 PM 21.0 °F 13.4 °F 14.0 °F 74% 30.34 in 10.0 mi WSW 5.8 mph - N/A   Clear
3:58 PM 19.0 °F 10.0 °F 12.9 °F 77% 30.34 in 10.0 mi WSW 6.9 mph - N/A   Clear
4:58 PM 16.0 °F 10.4 °F 12.0 °F 84% 30.35 in 10.0 mi SW 3.5 mph - N/A   Clear
5:58 PM 15.1 °F 6.4 °F 12.0 °F 88% 30.36 in 10.0 mi SW 5.8 mph - N/A   Clear
6:58 PM 14.0 °F 6.5 °F 10.9 °F 88% 30.35 in 10.0 mi SSE 4.6 mph - N/A   Mostly Cloudy
7:58 PM 15.1 °F - 10.9 °F 84% 30.35 in 10.0 mi Calm Calm - N/A   Overcast
8:58 PM 15.1 °F 6.4 °F 10.9 °F 84% 30.34 in 10.0 mi East 5.8 mph - N/A   Overcast
9:58 PM 16.0 °F - 12.0 °F 84% 30.35 in 10.0 mi Calm Calm - N/A   Overcast
10:58 PM 16.0 °F 3.6 °F 12.9 °F 88% 30.33 in 9.0 mi ESE 10.4 mph - N/A Snow Light Snow
11:58 PM 17.1 °F 8.7 °F 12.9 °F 84% 30.33 in 10.0 mi ESE 5.8 mph - N/A   Overcast